SP2WM Weather Reports


Display with metric or nautical units.
time (UTC)temp
F
wind
direction
speed
MPH
gust
MPH
rain 1hr
in
rain 24hr
in
rain mn
in
humidity
%
barometer
mb
20260905155039 63 139 4.0 13.0 0.00 0.00 0.00 76 1010.6
20260905154036 65 139 7.0 17.0 0.00 0.00 0.00 69 1010.2
20260905153034 65 138 6.0 17.0 0.00 0.00 0.00 68 1010.1
20260905152033 66 139 8.0 15.0 0.00 0.00 0.00 67 1010.1
20260905151033 66 137 6.0 14.0 0.00 0.00 0.00 69 1010.2
20260905150029 65 138 6.0 22.0 0.00 0.00 0.00 70 1010.1
20260905145029 66 138 6.0 18.0 0.00 0.00 0.00 68 1010.3
20260905144025 67 139 9.0 21.0 0.00 0.00 0.00 66 1009.9
20260905143021 66 140 8.0 18.0 0.00 0.00 0.00 68 1009.8
20260905142023 66 141 5.0 18.0 0.00 0.00 0.00 67 1009.8
20260905141039 67 141 8.0 18.0 0.00 0.00 0.00 67 1009.9
20260905140038 67 139 7.0 18.0 0.00 0.00 0.00 68 1009.9
20260905135038 67 139 6.0 19.0 0.00 0.00 0.00 67 1009.8
20260905134037 66 139 5.0 15.0 0.00 0.00 0.00 70 1009.6
20260905133034 66 139 6.0 15.0 0.00 0.00 0.00 71 1009.7
20260905132032 64 139 6.0 16.0 0.00 0.00 0.00 73 1009.8
20260905131028 64 139 4.0 15.0 0.00 0.00 0.00 76 1009.8
20260905130025 67 140 7.0 21.0 0.00 0.00 0.00 65 1009.9
20260905125028 69 139 9.0 18.0 0.00 0.00 0.00 61 1009.7
20260905124026 69 139 6.0 15.0 0.00 0.00 0.00 65 1009.7
20260905123022 69 139 4.0 10.0 0.00 0.00 0.00 67 1009.7
20260905122022 67 139 4.0 14.0 0.00 0.00 0.00 69 1009.7
20260905121023 65 139 5.0 17.0 0.00 0.00 0.00 71 1009.8
20260905120023 66 140 4.0 15.0 0.00 0.00 0.00 69 1010.0
20260905115025 67 139 7.0 18.0 0.00 0.00 0.00 68 1009.8
20260905114023 65 141 7.0 18.0 0.00 0.00 0.00 69 1010.0
20260905113024 65 141 9.0 19.0 0.00 0.00 0.00 67 1009.9
20260905112022 66 141 7.0 12.0 0.00 0.00 0.00 69 1010.0
20260905111039 64 141 4.0 19.0 0.00 0.00 0.00 71 1009.9
20260905110037 65 140 5.0 15.0 0.00 0.00 0.00 68 1010.0
20260905105037 65 139 6.0 22.0 0.00 0.00 0.00 69 1009.8
20260905104037 67 140 6.0 16.0 0.00 0.00 0.00 65 1009.7
20260905103034 67 141 5.0 21.0 0.00 0.00 0.00 66 1009.6
20260905102031 66 143 8.0 19.0 0.00 0.00 0.00 66 1009.7
20260905101024 66 142 8.0 27.0 0.00 0.00 0.00 68 1009.7
20260905100027 65 141 6.0 16.0 0.00 0.00 0.00 70 1009.5
20260905095027 64 142 11.0 24.0 0.00 0.00 0.00 70 1009.7
20260905094043 65 141 7.0 20.0 0.00 0.00 0.00 69 1009.4
20260905093027 65 143 10.0 20.0 0.00 0.00 0.00 69 1009.4
20260905092028 65 141 8.0 23.0 0.00 0.00 0.00 69 1009.2
20260905091030 65 142 6.0 18.0 0.00 0.00 0.00 70 1009.1
20260905090028 64 141 6.0 18.0 0.00 0.00 0.00 70 1009.0
20260905085027 64 140 6.0 15.0 0.00 0.00 0.00 72 1009.0
20260905084024 64 141 7.0 21.0 0.00 0.00 0.00 71 1008.9
20260905083026 63 142 7.0 19.0 0.00 0.00 0.00 72 1008.7
20260905082024 64 142 12.0 23.0 0.00 0.00 0.00 70 1008.7
20260905081021 64 141 6.0 23.0 0.00 0.00 0.00 74 1008.7
20260905080038 64 140 7.0 16.0 0.00 0.00 0.00 73 1008.5
20260905075037 63 140 6.0 19.0 0.00 0.00 0.00 76 1008.4
20260905074038 63 140 8.0 15.0 0.00 0.00 0.00 74 1008.2
20260905073034 63 143 10.0 19.0 0.00 0.00 0.00 75 1008.1
20260905072035 62 144 11.0 26.0 0.00 0.00 0.00 76 1008.1
20260905071033 62 142 6.0 17.0 0.00 0.00 0.00 79 1007.8
20260905070035 62 140 7.0 22.0 0.00 0.00 0.00 80 1007.8
20260905065033 61 142 8.0 16.0 0.00 0.00 0.00 82 1007.5
20260905064032 61 142 7.0 16.0 0.00 0.00 0.00 84 1007.6
20260905063026 60 141 5.0 17.0 0.00 0.00 0.00 85 1007.4
20260905062026 60 141 6.0 13.0 0.00 0.00 0.00 86 1007.3
20260905061028 60 142 6.0 15.0 0.00 0.00 0.00 86 1007.3
20260905060030 60 141 6.0 13.0 0.00 0.00 0.00 85 1007.2
20260905055026 59 142 6.0 15.0 0.00 0.00 0.00 86 1007.0
20260905054024 59 141 5.0 13.0 0.00 0.00 0.00 85 1007.1
20260905053027 59 141 4.0 16.0 0.00 0.00 0.00 86 1006.9
20260905052025 58 142 5.0 12.0 0.00 0.00 0.00 86 1006.8
20260905051022 58 142 5.0 12.0 0.00 0.00 0.00 86 1006.7
20260905050040 58 141 5.0 11.0 0.00 0.00 0.00 86 1006.7
20260905045022 58 141 3.0 9.0 0.00 0.00 0.00 86 1006.5
20260905044020 58 141 5.0 9.0 0.00 0.00 0.00 86 1006.4
20260905043038 58 141 4.0 12.0 0.00 0.00 0.00 85 1006.3
20260905041025 58 141 7.0 12.0 0.00 0.00 0.00 85 1006.2
20260905040027 58 141 6.0 19.0 0.00 0.00 0.00 85 1006.0
20260905035026 58 142 7.0 15.0 0.00 0.00 0.00 85 1005.9
20260905034024 58 141 8.0 13.0 0.00 0.00 0.00 85 1005.8
20260905033020 59 142 7.0 20.0 0.00 0.00 0.00 85 1005.6
20260905032025 59 142 6.0 20.0 0.00 0.00 0.00 85 1005.6
20260905031020 59 141 7.0 14.0 0.00 0.00 0.00 85 1005.4
20260905030020 59 142 6.0 15.0 0.00 0.00 0.00 85 1005.3
20260905025039 60 142 5.0 14.0 0.00 0.00 0.00 84 1005.3
20260905024036 60 142 5.0 12.0 0.00 0.00 0.00 83 1005.1
20260905023039 61 141 6.0 20.0 0.00 0.00 0.00 83 1005.0
20260905022039 61 143 5.0 12.0 0.00 0.00 0.00 85 1004.8
20260905021034 61 143 8.0 18.0 0.00 0.00 0.00 85 1004.7
20260905020031 62 143 8.0 17.0 0.00 0.00 0.00 85 1004.4
20260905015110 62 142 7.0 14.0 0.00 0.00 0.00 85 1004.2
20260905014028 62 142 5.0 18.0 0.00 0.00 0.00 86 1004.3
20260905013027 62 143 5.0 15.0 0.00 0.00 0.00 86 1003.9
20260905012025 62 142 5.0 11.0 0.00 0.00 0.00 87 1003.8
20260905011024 62 143 6.0 14.0 0.00 0.00 0.00 87 1003.7
20260905010044 63 142 5.0 13.0 0.00 0.00 0.00 88 1003.6
20260905005037 63 142 6.0 16.0 0.00 0.00 0.00 87 1003.5
20260905004035 63 142 5.0 13.0 0.00 0.00 0.00 87 1003.4
20260905003031 63 142 6.0 15.0 0.00 0.00 0.00 87 1003.5
20260905002032 63 142 5.0 13.0 0.00 0.00 0.00 87 1003.3
20260905001033 64 141 4.0 13.0 0.00 0.00 0.00 87 1002.8
20260905000031 64 141 6.0 12.0 0.00 0.00 0.00 86 1002.6
20260904235030 64 142 7.0 15.0 0.00 0.00 0.00 86 1002.6
20260904234029 64 145 9.0 19.0 0.00 0.00 0.00 86 1002.4
20260904233031 64 143 7.0 25.0 0.00 0.00 0.00 86 1002.4
20260904232029 64 143 7.0 22.0 0.00 0.00 0.00 86 1002.3
20260904231028 64 143 6.0 17.0 0.00 0.00 0.00 87 1002.1
20260904230026 65 143 6.0 11.0 0.00 0.00 0.00 87 1001.9
20260904225029 65 144 7.0 19.0 0.00 0.00 0.00 89 1001.8
20260904224026 64 142 6.0 13.0 0.00 0.00 0.00 91 1001.9
20260904223024 64 142 4.0 8.0 0.00 0.00 0.00 92 1001.7
20260904222022 64 142 4.0 9.0 0.00 0.00 0.00 92 1001.8
20260904221040 64 142 2.0 4.0 0.00 0.00 0.00 91 1001.7
20260904220022 64 142 2.0 5.0 0.00 0.00 0.00 90 1001.6
20260904215022 64 142 1.0 9.0 0.00 0.00 0.00 89 1001.5
20260904214020 64 142 3.0 8.0 0.00 0.00 0.00 89 1001.4
20260904212040 64 142 3.0 9.0 0.00 0.00 0.00 89 1001.7
20260904211036 64 142 3.0 10.0 0.00 0.00 0.00 89 1001.6
20260904210032 64 142 2.0 10.0 0.00 0.00 0.00 89 1001.7
20260904205032 64 142 3.0 9.0 0.00 0.00 0.00 89 1001.7
20260904204031 64 142 4.0 11.0 0.00 0.00 0.00 90 1001.6
20260904202040 64 143 4.0 9.0 0.00 0.00 0.00 89 1001.6
20260904201035 65 143 4.0 12.0 0.00 0.00 0.00 89 1001.6
20260904200032 65 143 4.0 15.0 0.00 0.00 0.00 89 1001.7
20260904195033 65 143 4.0 13.0 0.00 0.00 0.00 90 1001.7
20260904194029 65 143 4.0 14.0 0.00 0.00 0.00 90 1001.0
20260904193027 65 143 6.0 18.0 0.00 0.00 0.00 90 1001.4
20260904192028 65 141 4.0 9.0 0.00 0.00 0.00 90 1001.4